Theta_e
310 310 310 310 310 310 310 310 310 310 310 310 310 310 310 310 311 311 312 312 312 312 313 313 313 313 313 313 313 313 312 313 313 313 313 314 315 314 315 315 314 314 313 315 316 316 316 316 317 317 317 317 318 320 321 320 320 320 323 323 323 324 323 322 322 322 320 319 319 319 319 318 319 319 318 318 318 318 317 318 317 318 318 318 318 318 318 318
310 310 310 310 310 310 310 310 310 310 310 310 310 310 310 310 310 311 311 311 311 312 312 312 312 312 312 312 312 312 313 313 314 315 316 316 315 314 314 315 314 314 313 314 315 315 317 317 317 318 317 319 319 320 322 321 320 321 323 323 323 324 323 321 321 320 320 319 318 318 319 318 318 318 318 317 317 317 317 317 317 317 318 318 319 319 319 319
310 310 310 310 310 310 310 310 310 310 310 310 311 311 311 311 311 311 311 311 311 311 311 311 311 312 312 312 312 312 313 314 315 318 316 314 314 314 314 314 314 315 314 314 315 316 317 317 317 318 317 319 320 321 322 321 321 321 322 323 322 322 322 321 320 321 320 319 319 318 318 318 318 318 318 317 318 318 317 317 317 317 318 318 318 318 318 319
309 309 309 309 310 310 310 310 310 310 311 311 311 311 311 311 311 311 311 311 311 311 311 311 311 312 312 312 312 313 314 315 318 318 315 314 315 315 314 314 314 315 314 314 314 315 317 316 316 317 317 318 319 320 322 321 321 321 321 322 321 321 320 319 319 320 320 319 319 319 318 318 317 317 317 318 318 318 318 317 317 317 317 317 317 317 317 317
309 309 309 309 310 310 310 310 310 311 311 311 311 311 311 311 311 311 311 311 311 311 311 312 312 312 312 312 313 313 314 317 318 316 314 315 315 315 315 315 315 315 315 314 314 315 316 315 316 316 317 317 318 319 320 320 320 320 320 321 321 320 319 319 319 319 320 319 319 319 318 318 317 318 318 318 318 317 317 317 317 317 317 317 317 317 317 317
309 309 309 310 310 310 310 310 311 311 311 311 311 311 311 311 312 311 311 312 312 312 312 313 313 313 313 314 314 314 315 317 318 316 315 315 315 315 315 315 315 315 315 314 314 314 315 315 316 317 317 317 317 317 318 319 320 321 320 320 320 319 318 318 318 319 319 319 318 319 318 318 317 317 317 317 318 317 317 318 318 318 318 318 318 317 317 317
309 310 310 310 311 311 311 311 312 312 312 312 312 312 312 312 313 313 313 313 313 314 314 314 314 314 314 315 315 315 315 317 317 317 317 316 316 316 315 315 315 315 315 314 315 315 316 316 316 316 317 317 317 317 317 318 318 320 321 320 319 318 317 317 318 319 319 318 318 318 318 317 317 317 317 317 317 317 317 317 317 317 317 317 318 318 317 317
311 311 311 312 312 313 313 313 314 314 314 314 314 314 314 314 314 314 314 314 315 314 315 315 315 315 316 316 316 316 317 317 317 317 317 316 316 315 315 315 314 315 315 315 315 316 316 317 317 317 316 316 317 317 317 317 318 319 319 319 319 318 318 318 318 319 318 318 317 318 318 317 317 317 316 316 316 316 316 316 316 316 316 317 317 317 317 317
313 313 314 315 315 316 316 317 317 318 318 318 319 318 318 318 318 318 318 318 317 317 318 318 318 319 319 320 318 317 318 318 317 317 316 316 315 315 315 315 315 315 315 315 316 317 317 317 317 317 317 317 317 317 317 317 317 317 317 317 317 317 318 317 317 317 317 317 317 317 317 317 317 316 316 316 316 316 316 316 317 316 316 316 316 316 316 316
317 317 318 319 319 320 320 320 321 321 321 321 322 322 322 322 321 322 321 321 321 321 321 321 322 322 321 321 319 317 319 320 319 318 316 316 315 315 315 315 315 315 315 315 316 317 317 317 317 318 317 317 317 316 317 317 316 317 317 316 316 316 316 316 316 316 315 315 316 316 317 316 316 316 316 316 316 316 316 316 316 316 316 316 316 316 315 316
320 320 320 320 320 320 320 320 320 319 319 319 319 319 319 319 319 319 319 319 319 319 319 319 319 319 318 319 319 319 321 320 319 318 317 317 317 316 316 315 315 315 315 316 317 317 317 317 317 317 317 316 316 316 316 316 316 316 316 315 315 315 315 315 315 315 315 315 316 316 316 316 315 315 315 316 316 316 316 317 316 316 316 316 316 316 316 315
318 317 317 317 317 316 316 316 315 315 315 315 315 315 315 315 315 316 316 316 316 316 316 315 315 315 314 314 316 320 321 321 320 320 319 320 321 320 318 316 314 315 315 316 318 317 316 317 317 317 316 316 316 316 315 315 315 315 314 314 314 314 315 315 315 316 316 316 316 316 315 315 315 315 315 316 317 316 316 316 317 317 316 316 316 316 316 315
314 314 313 313 313 313 313 313 313 313 314 314 314 314 315 315 315 315 315 315 315 315 315 315 315 314 313 313 315 317 318 319 320 320 320 321 321 320 318 315 313 314 315 316 317 318 317 316 316 316 316 316 316 316 315 315 315 314 314 314 314 315 315 316 317 317 316 316 316 315 315 316 316 317 317 317 317 316 316 316 316 316 316 316 316 315 315 315
312 312 312 312 312 312 313 313 313 314 314 314 314 315 315 315 315 315 315 316 316 316 316 315 315 313 312 313 316 316 316 317 317 318 318 318 318 318 317 315 314 314 315 315 315 316 317 316 315 315 315 316 316 315 315 315 315 314 315 315 316 316 316 318 317 316 316 315 314 315 315 316 316 317 317 317 317 316 316 316 316 316 315 316 315 316 316 315
312 312 312 312 313 313 314 314 314 314 315 315 315 314 314 315 315 315 315 315 315 315 315 315 314 313 313 315 316 316 316 316 316 316 316 316 317 317 316 316 314 313 313 313 313 314 315 315 314 314 315 315 315 315 314 314 315 315 315 317 318 317 317 319 318 316 316 315 313 314 316 316 316 317 317 317 316 316 316 315 315 316 316 316 315 316 316 315
312 312 313 313 314 314 314 315 315 315 315 315 315 315 315 316 316 317 317 317 316 316 315 315 314 312 314 316 316 316 316 316 316 316 316 316 316 316 316 315 314 313 312 312 312 313 313 313 314 315 315 315 314 315 315 316 317 317 317 317 320 319 318 320 319 316 315 315 313 314 316 316 316 316 316 316 316 316 315 315 315 316 316 316 316 315 316 316
313 313 313 314 314 315 315 315 315 315 316 316 317 318 318 319 320 320 320 319 318 317 315 315 314 312 314 316 317 317 316 316 316 315 315 315 314 314 315 314 314 313 312 312 312 312 313 313 314 315 314 314 314 315 317 318 319 320 320 319 320 321 319 320 320 318 316 315 315 314 314 314 315 315 315 316 316 316 316 315 316 316 316 316 316 316 316 316
313 313 314 314 314 314 315 316 317 318 319 320 320 321 322 322 322 322 321 320 318 316 315 313 314 315 317 317 317 317 316 315 315 314 314 314 314 314 314 314 314 313 313 313 313 313 313 313 314 315 315 315 314 315 318 320 320 320 321 321 321 320 319 318 319 319 318 317 317 316 315 315 316 316 315 316 316 316 315 315 316 316 316 316 316 316 315 313
314 314 315 315 315 316 318 319 321 321 321 323 323 323 324 323 323 322 319 317 316 317 318 315 315 319 320 317 316 316 316 315 315 315 315 314 314 314 314 314 314 313 314 315 314 313 313 314 316 317 317 316 315 315 317 318 319 319 320 320 320 319 318 318 318 318 318 318 318 317 316 316 316 316 315 316 316 316 316 316 316 316 316 316 316 314 313 311
315 316 316 317 319 320 321 322 323 323 323 324 324 324 324 323 323 322 318 317 318 320 320 318 316 317 318 317 317 317 317 317 316 316 316 315 315 314 313 314 314 314 315 317 316 314 313 317 318 318 317 317 317 318 317 318 318 318 319 320 319 319 318 318 318 318 317 317 317 318 317 316 316 316 315 315 316 316 316 316 316 317 317 316 314 312 311 310
318 319 320 321 322 323 323 323 323 323 324 324 324 323 322 322 323 322 320 320 321 322 322 322 320 319 320 320 321 319 319 318 317 317 316 315 314 314 314 315 315 315 316 317 316 314 315 318 319 318 317 317 318 319 318 318 318 318 319 319 319 319 318 317 317 318 316 316 317 316 317 316 316 316 315 315 316 316 316 316 316 315 315 314 313 311 310 309
320 321 322 323 324 324 324 324 324 324 324 323 323 322 322 322 322 321 320 320 322 323 323 323 323 322 322 322 322 321 320 318 317 317 316 315 315 315 315 315 316 316 317 317 317 317 318 318 318 317 317 317 318 318 318 319 318 318 319 319 319 319 318 318 318 317 315 316 317 317 316 317 316 316 316 316 316 316 316 315 314 313 313 312 311 310 309 308
322 323 323 324 324 323 324 324 323 323 323 323 322 322 322 322 322 321 320 318 320 323 322 322 323 323 323 321 321 320 318 318 319 318 316 315 315 316 316 315 316 318 318 317 318 320 320 318 317 317 317 317 318 318 319 318 318 319 319 318 319 319 319 319 318 317 316 316 317 317 317 316 316 316 316 317 317 315 314 313 312 312 311 310 309 309 308 306
322 323 323 323 323 322 322 322 322 322 322 322 322 322 322 322 322 321 318 318 320 322 322 322 322 322 322 319 318 318 317 318 319 318 317 315 315 316 316 316 316 318 318 317 317 319 320 319 318 317 318 318 318 319 320 319 318 319 320 320 319 318 319 319 318 317 316 317 317 317 319 319 318 319 319 319 317 314 313 312 311 311 310 309 308 307 306 305
323 322 322 322 322 321 321 321 322 322 322 322 322 322 322 322 321 318 317 319 322 321 321 322 320 320 319 318 317 317 317 317 318 317 316 316 316 316 316 317 317 318 319 318 318 319 318 318 318 318 318 319 319 319 319 320 319 319 321 322 320 319 320 320 320 319 318 319 319 319 322 322 321 321 322 321 317 312 312 311 310 310 309 308 307 306 305 304
324 323 322 321 321 321 321 322 323 323 322 323 323 322 322 322 320 318 317 320 323 323 322 320 319 317 315 315 315 315 317 316 315 316 315 315 316 315 315 317 317 317 318 317 318 319 318 317 318 320 319 320 321 320 319 319 318 319 322 324 321 319 320 320 320 319 319 320 319 318 321 321 320 320 321 321 316 311 311 310 309 309 308 307 306 305 304 303
325 324 324 323 322 321 322 323 323 323 322 324 323 322 322 321 319 317 319 325 327 324 321 317 317 316 313 312 313 315 318 316 314 314 314 314 315 314 315 316 316 316 315 316 320 320 318 318 319 319 319 321 321 320 319 319 319 320 320 321 320 318 319 319 318 318 318 318 318 318 319 320 320 320 321 320 314 311 311 310 309 308 307 306 305 304 303 302
324 324 325 324 323 323 323 323 323 323 323 324 323 322 322 320 319 317 322 329 329 321 318 314 314 314 311 311 312 313 314 314 314 313 312 313 314 313 314 315 316 316 314 317 321 319 317 320 321 319 319 320 320 320 321 320 319 321 318 316 317 316 316 317 317 318 318 318 319 320 320 321 322 321 321 322 315 311 311 310 309 308 306 306 304 303 302 301
325 325 325 325 324 324 324 323 323 323 323 323 323 322 321 320 318 318 324 329 326 318 316 313 312 312 311 311 312 312 310 311 313 313 311 313 313 312 313 313 313 315 314 315 319 318 316 316 317 319 320 319 318 320 322 322 319 317 316 316 316 317 317 317 317 317 317 318 319 321 321 321 324 323 321 322 316 312 311 310 308 307 306 305 304 303 302 301
325 325 325 324 324 323 323 323 322 322 322 322 322 322 321 320 318 322 327 327 322 318 315 312 313 313 312 311 312 312 311 311 312 312 311 312 313 312 312 312 311 313 316 316 317 317 314 311 312 315 318 317 317 316 316 319 318 314 315 317 317 319 319 317 317 316 317 321 321 320 320 320 325 326 321 319 316 312 311 309 308 306 305 304 303 302 301 300
324 324 323 323 322 322 322 322 322 322 322 322 322 321 321 320 320 326 329 323 320 319 315 314 314 313 312 314 315 312 311 312 311 312 312 312 313 312 312 313 312 314 316 317 318 318 315 313 313 314 314 313 317 316 313 313 313 313 315 315 317 321 319 317 318 316 319 324 323 322 322 320 324 326 319 316 314 312 311 309 307 306 304 303 302 301 300 299
322 322 321 321 320 320 320 321 321 322 321 321 321 320 321 322 323 327 325 319 322 323 318 317 316 314 315 317 317 315 314 314 312 312 314 314 314 314 314 316 316 318 319 319 321 319 319 318 315 314 313 312 316 317 314 314 313 313 314 314 317 322 321 320 321 321 322 323 320 322 324 321 322 322 318 316 313 312 311 309 307 305 303 302 301 301 300 299
320 320 319 319 319 318 318 319 320 321 321 321 321 320 322 324 326 325 322 321 325 322 318 318 316 315 316 317 319 318 316 315 312 311 314 315 316 316 316 317 318 320 319 319 320 319 321 320 317 317 316 313 315 316 318 319 314 313 316 318 320 320 319 319 321 321 323 321 318 319 320 320 321 318 316 312 308 308 308 306 305 304 302 302 301 300 299 298
319 318 318 317 317 317 317 318 319 320 321 321 320 320 322 324 324 323 322 323 322 319 318 318 315 315 316 317 319 318 318 317 312 311 314 316 317 318 318 317 318 319 318 319 319 318 320 320 319 320 318 314 314 316 318 320 316 314 317 321 322 320 318 317 318 319 321 321 319 318 319 321 320 316 312 308 306 305 305 304 303 302 301 301 300 299 299 298
318 318 317 317 317 317 316 317 318 320 321 320 320 321 323 323 323 322 322 322 321 320 319 318 317 318 318 319 319 317 317 319 315 313 316 317 317 318 318 318 318 318 319 320 320 318 318 319 320 318 315 313 315 316 316 319 320 318 317 320 321 321 320 319 320 321 321 322 320 319 321 321 317 313 309 307 306 304 304 303 302 302 301 300 299 298 297 297
317 317 316 316 316 316 316 316 318 319 320 320 321 322 322 321 322 323 322 320 321 322 320 320 321 320 320 320 320 318 317 318 317 316 318 318 317 318 317 318 319 318 318 320 319 318 316 318 321 318 314 312 313 315 315 317 320 320 319 321 319 318 318 320 321 320 319 320 319 318 319 318 315 313 308 307 306 305 304 303 302 301 300 299 298 297 296 296
315 315 315 315 315 316 316 315 317 319 319 320 321 322 320 319 320 321 320 318 318 319 320 322 322 321 321 321 322 321 318 318 318 317 318 318 318 318 317 317 318 317 317 318 319 320 318 318 320 319 318 314 309 311 313 312 315 319 319 319 317 316 317 318 319 319 319 319 317 316 317 315 315 315 310 308 307 305 304 303 301 301 300 299 298 297 296 296
314 314 314 315 315 315 315 315 316 318 319 320 321 321 320 319 319 318 318 318 318 318 319 321 322 321 321 321 321 320 318 319 318 317 318 318 318 318 317 317 316 314 314 315 317 319 318 318 319 319 320 316 309 311 315 312 312 315 315 314 315 318 318 317 317 318 319 318 317 317 317 315 315 315 313 310 307 305 304 303 302 301 299 298 298 297 296 296
313 312 312 314 314 314 314 314 315 317 319 320 320 320 319 319 318 317 317 317 317 319 320 320 321 321 320 320 320 319 318 319 319 317 318 318 318 317 316 317 315 312 311 313 316 318 318 318 319 318 319 317 313 314 318 316 313 312 311 312 316 317 317 317 318 319 319 318 318 318 317 317 316 314 313 311 308 306 305 304 302 301 300 299 298 297 296 296
310 310 311 313 314 314 313 313 315 317 318 320 319 319 318 318 317 317 317 316 317 319 321 320 320 321 320 320 319 318 318 319 318 318 318 317 316 317 316 317 316 312 311 312 314 317 318 318 318 317 317 318 317 317 318 317 315 314 313 313 314 315 315 316 317 317 318 317 317 317 317 318 316 311 310 310 308 307 305 304 303 301 300 299 298 297 297 296
308 308 310 312 312 313 313 313 315 316 318 319 318 317 317 317 317 317 316 316 316 318 319 319 320 321 320 319 319 317 317 318 318 318 318 316 315 317 315 315 314 314 314 315 315 316 317 318 317 318 318 317 318 317 316 317 316 316 317 315 315 316 316 316 316 316 316 316 316 316 316 318 314 310 309 309 308 307 304 303 302 300 300 299 298 298 297 296
306 307 310 311 311 312 313 314 315 316 317 318 317 316 316 315 316 317 316 315 316 316 316 317 318 319 318 318 318 317 317 318 318 318 318 317 316 316 314 312 313 314 315 316 317 316 315 316 316 317 317 315 315 315 315 316 316 317 318 316 316 316 316 316 316 315 315 315 316 316 315 316 313 309 308 307 305 305 303 302 301 300 299 299 298 297 297 296
306 308 311 310 310 311 313 314 315 315 316 316 315 315 315 315 316 316 316 315 315 315 315 316 316 316 317 317 317 317 317 317 318 318 318 317 315 314 313 312 313 314 314 315 316 315 313 314 315 315 314 314 315 314 315 315 316 316 316 315 315 315 314 314 313 312 313 313 314 314 314 315 313 308 306 305 304 304 303 302 301 300 299 299 298 297 296 296
306 309 310 309 310 311 313 314 315 315 315 314 315 315 315 316 316 316 316 316 315 315 316 316 316 316 316 316 316 316 316 316 317 316 317 317 314 311 311 311 312 313 314 314 314 313 312 313 314 314 314 313 314 314 314 315 315 314 314 313 313 313 313 312 311 311 312 312 313 313 313 314 314 309 306 305 304 304 304 303 302 301 300 299 298 297 296 295
307 309 310 309 310 311 312 313 313 314 314 314 315 316 315 316 316 316 316 316 316 315 315 316 315 315 315 315 315 316 316 316 316 315 315 315 314 310 309 311 311 311 311 311 310 311 312 313 313 313 312 312 311 311 312 313 313 313 312 313 313 313 313 312 312 312 312 312 312 312 311 312 313 312 309 307 306 305 304 303 303 302 300 299 298 296 296 295
307 308 309 309 309 310 311 312 313 313 314 315 315 315 315 316 316 315 315 315 315 315 314 315 314 314 314 315 315 315 314 314 315 314 314 314 313 311 309 310 310 309 309 309 309 310 311 311 312 312 312 311 310 311 310 310 310 310 311 311 311 311 311 312 311 311 311 310 309 309 309 309 310 310 309 308 308 306 304 302 302 301 300 299 297 296 295 295
305 306 309 310 309 310 311 311 312 313 313 314 314 314 314 315 314 314 315 314 314 314 314 314 313 313 314 314 314 313 313 313 314 313 313 313 313 311 309 309 308 307 307 308 308 310 310 310 310 310 310 310 310 310 309 309 308 308 309 309 309 309 309 310 310 309 309 309 308 308 307 307 307 306 306 306 306 306 304 303 302 301 299 298 297 296 295 294
303 304 308 309 309 310 311 311 311 312 312 313 313 313 313 314 313 313 314 313 313 313 313 313 313 313 313 313 313 312 312 312 312 312 312 312 312 310 309 309 307 306 307 308 308 309 309 308 308 307 307 308 307 307 307 307 306 306 306 306 306 307 307 306 307 307 307 308 307 306 306 306 305 304 304 304 304 303 303 302 301 299 298 297 296 295 295 294
302 301 304 307 308 308 310 311 311 311 311 312 312 312 312 312 312 312 312 312 312 312 312 311 311 312 313 313 312 312 311 310 311 312 310 309 309 309 309 308 306 305 306 307 307 307 307 307 306 306 306 305 306 306 306 306 305 305 305 305 305 305 305 305 305 305 305 305 305 304 304 304 303 303 303 302 302 301 300 300 299 298 297 296 295 295 295 294
300 300 301 304 305 305 306 309 311 311 311 311 311 311 311 311 311 311 311 311 311 311 311 310 311 311 312 313 312 311 311 310 311 310 307 307 308 307 307 307 305 304 305 305 305 306 306 306 306 305 305 304 304 304 304 305 305 304 304 304 304 304 304 304 304 304 304 303 303 303 303 303 303 302 300 300 299 298 297 297 297 296 295 295 294 294 293 293
298 299 300 302 304 304 304 306 309 310 310 310 310 310 310 310 310 310 310 310 309 310 310 309 309 309 308 310 310 309 308 307 307 306 304 305 306 305 305 305 305 304 304 304 305 305 305 305 305 305 303 302 302 302 303 304 304 303 303 303 303 302 302 302 303 303 303 302 302 302 302 302 302 300 298 298 297 296 296 295 295 294 294 293 292 292 292 292
297 298 298 300 303 304 303 305 308 309 309 309 308 309 309 309 308 308 309 307 306 307 308 308 308 307 307 308 307 305 304 304 303 303 302 302 303 303 303 303 303 303 304 304 304 305 305 304 304 304 302 302 302 302 301 302 302 302 302 302 302 301 301 301 301 302 302 302 302 302 301 302 302 300 299 297 294 293 293 293 292 292 292 292 292 291 291 291
Wind_Speed
2 2 1 1 1 1 1 1 1 2 2 2 3 3 4 4 4 5 5 6 6 7 7 8 8 9 9 10 11 12 13 14 16 17 19 15 8 9 7 6 5 4 4 4 4 4 3 2 2 3 3 4 3 4 6 4 3 2 1 3 3 4 4 3 3 3 4 4 4 4 6 5 5 6 4 5 8 13 18 22 22 19 20 24 25 22 20 19
3 3 2 2 2 2 2 2 3 3 3 3 3 4 4 5 5 6 6 7 7 8 8 9 9 9 10 11 12 14 14 15 18 18 16 11 5 4 2 4 6 5 4 3 3 1 1 2 4 5 4 6 5 5 6 5 5 5 2 3 4 4 5 8 8 7 5 6 9 11 12 9 8 11 9 5 8 11 13 18 21 22 21 21 22 21 21 21
4 4 4 4 4 4 4 4 4 4 4 5 5 5 5 6 6 6 7 7 8 9 9 10 10 10 11 11 13 13 15 18 17 12 6 1 5 3 4 7 5 5 4 3 2 2 3 5 4 5 6 7 6 5 5 5 6 8 6 3 5 5 7 10 12 10 8 9 10 10 10 11 12 15 13 9 9 10 10 15 17 20 20 17 17 17 17 19
6 5 5 5 5 5 5 5 5 6 6 6 7 7 7 7 7 8 8 8 9 9 10 10 11 11 12 12 13 12 16 17 8 3 1 6 5 3 9 11 6 4 4 4 4 4 6 7 4 6 7 8 9 7 6 7 6 6 7 3 5 7 7 11 16 14 11 9 8 9 10 12 15 15 13 11 8 6 11 18 17 21 23 21 21 20 19 19
7 6 6 6 6 6 6 6 6 6 7 8 8 8 9 9 9 9 10 10 10 11 11 11 12 12 13 13 13 12 14 8 1 0 2 3 2 9 13 13 8 4 4 4 3 4 6 6 5 7 7 7 9 7 7 12 10 4 6 9 10 10 8 12 18 13 8 8 9 10 8 12 15 14 14 11 8 8 13 20 22 27 28 26 25 23 22 22
7 7 7 7 7 7 7 8 8 8 8 9 9 10 10 10 11 11 11 12 12 12 13 13 13 13 14 14 14 13 9 4 4 5 4 6 11 14 14 13 9 5 6 4 3 4 5 5 6 8 8 6 7 7 8 14 13 6 7 11 13 14 12 15 18 12 9 9 10 11 11 15 16 14 18 16 16 19 20 22 26 30 31 29 26 23 22 23
8 8 8 8 8 8 9 9 9 9 10 11 11 11 12 12 12 12 13 13 13 14 14 15 15 15 16 15 15 13 7 11 14 11 11 14 16 16 15 12 7 6 8 6 4 4 5 6 8 9 8 6 8 9 10 12 11 7 5 8 14 18 18 19 18 14 14 13 15 15 13 16 14 14 18 19 23 28 26 25 28 30 30 29 28 25 23 23
9 9 9 10 10 10 10 11 11 11 12 12 13 13 14 14 14 14 15 15 16 16 16 17 17 17 16 15 14 11 10 17 18 15 15 15 13 13 11 8 6 8 9 6 5 5 6 7 10 10 8 7 9 10 9 9 8 8 7 9 13 16 17 18 17 15 16 17 18 15 13 17 18 18 20 22 28 31 27 25 25 26 27 26 26 25 24 24
11 11 11 11 11 12 12 12 13 13 14 14 15 15 15 16 16 16 16 16 17 17 17 17 18 18 16 15 11 8 13 17 16 15 15 11 9 9 7 7 6 8 10 7 6 7 8 8 9 8 6 9 10 10 10 7 4 5 6 9 11 12 15 18 19 19 19 20 17 10 11 18 21 18 16 21 26 26 22 18 18 18 21 23 23 24 24 25
12 12 12 12 13 13 13 13 14 14 15 15 16 16 16 16 16 16 17 17 17 17 17 17 18 17 16 15 8 6 13 13 12 13 12 11 11 10 10 9 8 9 11 9 8 9 10 9 9 9 9 10 9 9 11 8 6 6 10 13 15 15 19 21 22 25 23 22 20 12 10 18 20 11 9 18 21 20 18 17 16 17 20 22 23 25 25 26
13 13 13 13 13 14 14 14 14 14 15 15 16 16 16 16 16 16 16 16 16 16 16 16 17 16 16 14 9 10 12 11 10 12 13 14 15 14 13 12 11 10 11 10 9 10 11 10 11 10 7 5 6 10 10 7 7 9 11 13 16 18 21 23 22 25 21 14 18 14 8 16 17 8 14 25 22 19 20 19 19 19 20 22 23 26 27 27
13 13 13 13 13 13 13 14 14 14 14 14 15 15 15 15 14 15 15 14 15 14 15 15 15 15 14 14 17 18 17 15 15 16 17 18 18 17 15 14 13 12 12 11 10 12 13 13 12 9 7 6 7 8 6 5 6 7 7 7 13 14 14 19 21 23 19 8 9 7 1 10 10 9 20 25 18 17 19 18 19 21 23 26 26 28 27 26
13 12 12 12 11 11 11 12 12 12 13 13 13 14 14 14 13 14 13 13 14 13 13 13 14 14 12 12 18 18 16 16 17 17 18 18 18 17 14 12 12 13 13 13 13 14 14 14 14 12 11 10 7 6 6 9 7 5 6 5 9 9 7 15 16 15 12 6 12 9 1 5 6 12 17 13 11 13 15 17 22 25 28 30 29 27 24 23
12 11 10 10 10 10 10 10 11 11 12 12 12 13 13 13 13 13 13 13 13 12 12 13 13 12 10 13 16 14 13 13 14 16 17 17 18 16 13 11 11 12 13 14 15 15 14 13 13 13 12 12 10 9 8 9 6 5 7 4 5 5 4 10 7 7 4 6 13 9 2 5 6 13 15 13 14 18 19 21 27 29 29 30 27 23 20 18
11 10 10 9 9 9 9 10 10 10 11 12 12 13 13 13 13 12 12 12 12 12 12 12 12 9 9 14 15 11 11 11 13 15 13 15 15 12 11 10 10 11 12 14 15 14 14 12 11 9 9 10 10 8 6 4 4 4 6 4 4 4 4 9 4 9 5 3 11 8 1 6 6 9 16 20 21 21 22 26 31 32 30 29 23 19 18 14
10 10 10 9 9 9 9 9 9 10 10 11 12 12 12 12 12 12 12 11 11 12 10 9 10 7 6 10 11 8 7 9 11 10 9 11 10 8 9 8 6 9 11 12 13 12 12 9 7 6 6 6 4 4 3 3 4 4 5 5 5 5 5 5 2 9 8 3 6 7 3 5 4 7 17 24 23 21 22 27 31 31 28 24 21 19 14 9
10 10 10 9 9 9 9 9 9 9 10 11 12 12 12 12 13 13 12 11 11 10 8 8 6 5 8 11 10 7 6 7 8 8 8 8 7 7 7 5 4 6 7 8 9 9 8 7 5 4 6 5 3 3 3 4 4 4 4 5 5 5 4 3 3 2 7 6 5 8 6 7 7 10 18 22 24 22 21 26 30 26 23 22 18 11 8 14
9 9 9 10 10 10 9 9 9 10 10 11 12 12 13 13 12 13 12 11 8 6 6 6 4 1 7 10 9 6 5 5 5 5 6 5 4 5 3 3 3 3 4 4 6 7 6 6 5 2 3 4 4 3 4 5 5 5 5 4 5 6 5 5 6 4 1 4 5 6 8 8 7 9 14 20 26 26 24 26 27 23 21 20 10 12 19 20
10 9 9 10 10 10 10 10 10 10 11 11 12 13 12 10 10 10 7 5 5 3 3 5 8 3 5 6 8 8 8 8 7 9 9 7 5 5 5 4 4 6 6 4 5 10 8 4 3 2 3 5 6 7 8 9 9 9 9 6 7 6 5 7 9 8 7 8 6 6 7 7 7 8 11 21 27 26 26 27 27 23 16 6 13 23 23 22
10 11 10 11 11 11 11 10 11 11 11 11 11 11 9 7 6 3 3 6 9 9 10 9 11 13 13 10 9 10 11 10 10 11 10 7 5 6 7 7 7 6 4 4 5 9 9 4 3 4 6 9 9 10 11 10 10 10 9 7 7 6 7 8 9 9 6 4 4 5 6 7 8 8 13 25 24 20 22 23 21 12 6 18 25 25 24 23
12 12 11 11 11 12 11 11 12 11 11 10 9 7 4 5 4 3 7 12 13 12 16 18 16 18 19 15 13 16 14 9 9 10 8 6 6 7 9 10 6 4 7 7 5 4 6 4 5 7 10 13 11 10 10 9 8 9 7 6 6 5 7 8 10 10 3 1 3 5 6 7 9 12 17 19 15 14 13 8 8 14 22 24 25 24 22 21
13 12 11 11 12 13 12 11 12 11 10 9 6 4 3 5 5 7 8 10 14 15 17 21 21 23 24 19 19 23 17 8 8 9 7 8 10 7 10 10 5 4 7 6 5 2 3 4 9 13 13 12 11 10 10 9 7 7 6 5 5 5 7 8 8 6 1 2 3 5 6 6 10 16 16 14 12 5 9 17 19 22 25 23 23 21 19 19
13 12 12 13 12 14 14 11 11 10 8 6 3 2 5 6 6 8 7 6 14 18 16 20 22 24 22 17 18 20 15 10 9 10 8 9 12 10 9 8 5 4 5 6 5 4 4 5 11 15 13 10 10 9 8 8 5 4 4 4 5 5 5 5 3 2 3 3 6 7 6 5 10 14 12 15 11 10 24 26 23 24 25 23 22 19 19 20
13 13 14 14 13 14 14 10 8 9 7 5 3 4 5 6 6 8 7 6 9 12 15 18 18 17 15 12 13 13 9 9 8 8 10 11 11 9 8 7 6 5 5 7 9 8 6 7 8 8 9 8 7 7 7 6 4 4 5 5 7 7 6 5 4 5 5 6 5 5 5 4 7 8 7 10 2 16 22 23 23 23 23 22 21 20 20 21
16 16 15 15 13 13 11 8 7 6 5 3 3 3 4 5 6 7 6 5 5 6 11 12 10 11 12 12 12 9 6 6 5 8 13 13 11 7 5 9 7 4 7 9 10 9 7 8 6 4 5 4 4 6 6 4 3 5 5 5 6 5 4 4 6 6 4 5 2 2 2 3 4 5 8 8 3 11 14 17 18 19 21 21 21 19 19 20
19 18 17 15 13 12 9 6 5 4 3 3 3 2 3 4 4 6 5 3 3 3 4 5 5 5 6 6 6 6 3 3 6 9 12 13 12 6 2 5 6 4 4 4 4 4 3 2 2 1 3 3 3 6 7 4 3 4 3 2 3 2 2 3 4 2 1 3 3 1 1 4 4 5 11 7 6 10 10 11 11 17 19 19 20 17 16 19
21 20 19 17 15 14 9 6 6 3 3 4 2 2 3 2 1 4 3 3 4 2 4 3 3 3 3 4 7 7 2 3 5 6 10 12 10 7 3 3 4 4 2 1 1 1 3 3 4 2 3 3 4 5 5 5 4 3 1 3 4 3 2 2 1 2 3 4 5 5 4 5 5 5 11 6 10 10 8 8 9 15 18 19 20 17 16 18
24 24 23 20 17 17 13 10 9 6 6 7 4 4 3 1 1 2 1 4 3 3 3 2 3 3 4 6 8 5 1 3 3 2 9 12 9 5 5 4 3 3 3 3 1 1 1 3 2 3 4 4 4 2 2 4 4 2 1 2 2 2 1 2 3 4 3 3 4 5 5 3 5 5 8 6 10 8 7 8 8 12 16 18 18 16 15 16
27 28 27 22 19 19 16 14 13 11 10 9 7 5 3 3 1 2 0 3 1 2 2 2 3 4 6 6 6 5 2 2 1 1 6 9 9 5 2 4 5 5 2 5 5 3 1 3 1 3 4 3 3 1 4 0 2 2 1 1 1 2 4 4 4 3 2 3 4 5 6 3 4 6 5 4 7 6 7 7 7 13 17 17 16 15 14 14
26 27 25 21 19 18 16 15 15 13 11 10 8 6 5 4 2 1 3 3 0 2 3 4 3 5 7 4 4 6 3 2 4 6 5 4 8 6 3 3 3 4 2 3 6 6 0 4 1 2 4 2 4 2 4 3 1 0 1 2 3 5 4 3 3 1 1 3 6 8 10 8 3 5 2 2 5 9 9 7 7 12 17 17 15 14 14 14
21 20 18 16 15 15 14 13 12 12 12 10 9 8 6 3 1 4 5 1 0 1 4 3 2 5 6 2 2 4 3 3 7 7 4 3 5 5 3 2 1 1 2 3 5 6 2 2 1 4 6 3 5 2 3 3 2 2 2 2 4 4 1 1 0 2 1 4 5 5 7 10 4 4 2 5 5 10 10 9 9 10 14 17 16 14 14 15
15 14 13 13 13 12 12 12 10 11 12 11 10 9 6 2 3 4 2 1 0 2 2 2 2 4 4 1 2 2 1 3 5 3 2 2 4 4 4 3 2 1 2 2 1 2 2 4 4 2 3 4 3 2 2 3 3 3 1 0 2 3 1 0 0 2 3 5 3 5 3 4 5 5 4 5 7 5 7 12 14 14 17 17 15 14 15 16
13 13 12 12 12 12 13 12 9 9 11 12 12 9 4 4 5 3 3 3 1 1 2 3 1 1 2 2 2 2 1 1 3 1 0 1 1 3 6 7 5 2 2 0 3 2 2 1 4 3 1 5 6 3 1 2 1 4 3 3 3 1 2 3 2 2 3 3 2 4 6 1 3 4 3 6 8 10 16 20 20 20 20 19 16 15 16 14
12 11 11 11 11 12 12 12 11 9 11 14 11 5 4 5 2 1 4 5 1 2 2 3 2 1 0 1 2 2 1 1 3 2 1 2 2 3 5 7 7 3 1 1 2 1 2 3 3 3 1 6 8 4 2 1 3 6 4 4 4 3 3 4 3 3 4 3 3 2 2 1 2 1 3 9 12 17 22 23 22 22 20 18 17 15 13 12
12 11 11 11 11 12 11 13 14 10 12 14 8 3 5 4 1 1 3 4 2 3 2 2 2 2 2 2 2 2 2 2 3 2 2 3 3 3 3 3 6 4 3 1 1 1 1 3 3 2 2 7 5 3 1 3 1 3 0 2 2 3 3 3 4 4 3 4 4 2 2 3 0 4 7 10 13 16 19 19 20 19 17 17 16 14 12 11
12 12 12 12 12 13 13 15 15 12 13 12 5 4 6 2 1 2 0 2 1 3 3 1 1 2 3 3 3 3 2 2 3 2 3 3 3 4 3 1 4 6 4 3 1 1 2 3 2 2 1 4 2 1 2 2 0 1 2 1 3 2 2 2 4 4 3 4 6 4 4 4 1 3 6 9 10 11 11 14 16 15 15 16 14 12 11 12
12 13 14 14 13 13 14 15 15 14 14 10 5 6 4 3 5 3 1 1 1 1 3 2 2 2 3 3 4 5 3 1 3 2 1 2 1 2 4 1 2 4 5 2 1 2 2 3 3 3 2 2 1 1 2 0 2 2 1 2 2 1 1 1 3 3 4 6 5 6 7 7 4 2 3 7 8 8 7 9 12 13 14 13 12 11 11 13
13 13 14 14 14 14 15 15 15 16 13 8 6 7 3 3 5 2 2 2 2 2 2 3 2 1 3 4 2 4 4 1 3 3 1 2 1 2 4 1 4 3 1 4 1 1 0 2 4 1 1 1 1 1 1 1 2 3 2 1 1 0 1 2 2 2 5 6 4 5 8 7 5 3 2 6 7 8 7 7 8 10 11 12 11 10 10 11
12 11 11 11 13 16 17 16 17 16 10 5 6 6 2 1 3 4 2 3 2 1 1 3 2 0 2 2 1 3 4 3 3 2 1 2 2 2 3 2 3 3 4 4 2 1 2 1 2 1 2 2 2 1 2 2 2 3 1 2 1 2 2 2 2 2 4 6 5 5 6 5 3 2 2 5 8 9 8 7 6 8 11 11 10 9 9 9
10 6 6 8 11 17 20 19 17 13 6 5 6 3 1 0 4 8 6 2 1 1 1 2 1 2 3 2 2 1 2 2 2 2 2 1 2 1 5 5 1 1 3 3 1 1 1 2 2 1 1 1 0 2 3 1 2 2 1 2 1 1 1 2 2 2 3 5 5 5 6 4 1 3 3 6 7 7 7 7 6 8 11 9 9 9 7 6
10 4 5 9 10 18 24 18 12 9 4 6 6 2 1 2 3 5 7 7 4 2 2 2 2 4 4 4 4 3 2 2 3 3 3 3 3 1 2 4 3 2 2 2 1 1 0 2 1 1 2 2 3 3 1 1 4 1 3 2 3 2 1 2 4 4 3 3 4 5 7 4 1 2 4 6 5 6 9 9 8 9 11 10 9 9 8 6
11 3 5 11 14 24 27 14 8 8 5 7 8 6 6 5 3 5 7 9 7 5 6 4 4 6 5 6 6 5 4 4 4 4 3 4 5 2 2 3 4 4 2 2 1 3 3 2 1 2 4 6 9 9 5 5 5 4 4 3 3 3 3 3 5 4 2 4 4 5 6 3 1 2 3 6 6 9 12 12 11 12 12 11 10 8 6 4
12 5 5 12 20 30 23 6 6 7 5 8 10 10 11 7 5 7 8 8 6 6 6 5 6 8 7 7 7 6 5 4 4 5 3 3 2 2 4 4 4 3 2 0 0 3 4 2 1 3 4 6 9 8 3 5 3 2 2 0 0 2 2 3 3 2 0 3 4 4 5 3 2 2 2 7 9 11 12 12 12 13 13 11 10 8 6 4
9 7 6 11 23 31 18 4 6 8 6 8 8 9 13 11 8 8 8 9 8 6 5 5 7 8 7 6 6 6 6 4 4 4 3 3 1 6 6 5 4 3 2 1 1 1 0 1 1 0 3 4 6 5 2 5 4 1 2 2 1 3 3 2 1 1 2 5 6 5 5 2 1 2 1 6 7 7 9 11 11 12 13 12 10 9 7 6
7 7 6 11 24 29 17 6 4 5 8 10 9 10 11 9 10 13 10 8 9 8 5 4 6 6 5 4 3 3 4 3 3 2 1 1 1 5 6 7 6 4 5 6 4 2 1 1 2 2 4 5 5 4 1 2 2 1 2 4 3 4 5 4 2 3 4 4 4 4 5 3 2 4 4 4 5 5 7 10 12 12 13 13 12 10 9 7
7 6 5 9 21 27 23 15 6 3 5 9 8 9 11 8 7 12 12 9 12 13 8 4 3 1 2 4 3 3 4 4 3 2 1 1 2 3 6 9 9 7 7 6 5 3 0 1 3 5 5 6 7 6 4 3 3 4 6 7 7 7 6 4 3 6 5 3 4 8 9 8 7 8 8 2 4 5 6 9 12 12 12 12 11 10 8 7
5 4 5 8 12 17 19 18 13 6 4 7 5 5 11 11 6 7 10 8 8 10 8 5 5 3 3 5 4 5 6 6 6 6 4 4 3 3 5 7 7 6 6 5 3 3 2 3 5 6 7 8 8 9 9 8 6 7 8 9 10 9 7 7 8 7 3 3 7 10 10 10 10 10 10 7 3 5 7 9 11 12 12 11 9 7 6 6
5 3 6 12 8 7 10 13 15 12 8 7 4 3 7 10 8 7 7 6 4 4 5 5 8 9 8 7 5 4 6 6 5 5 4 3 3 4 4 4 5 5 5 3 3 3 2 3 5 4 6 8 9 9 9 7 7 7 9 10 11 12 12 12 10 8 5 6 9 10 12 13 11 11 11 11 11 9 6 4 6 8 9 8 6 5 5 6
7 5 5 10 6 4 8 12 14 14 12 8 5 5 7 8 8 5 4 4 3 3 5 5 6 7 6 7 6 4 4 3 2 0 1 2 2 3 2 2 3 4 4 2 1 2 2 2 3 3 5 8 9 8 7 6 7 9 11 12 13 15 15 12 11 10 9 10 11 12 14 14 12 13 11 8 7 3 3 4 4 4 5 5 4 3 5 6
6 4 3 5 3 1 4 9 11 10 11 10 7 7 6 6 8 4 3 4 4 4 7 7 5 2 2 1 4 3 2 4 4 2 3 3 2 2 1 0 1 3 2 2 1 2 1 1 0 1 3 7 8 7 5 6 8 10 12 13 15 15 14 12 12 11 10 11 13 13 14 13 12 9 5 1 3 4 5 4 3 3 3 3 2 4 5 7
7 4 1 1 3 3 3 4 8 7 7 9 8 7 5 7 9 5 1 2 3 2 4 6 4 3 3 3 4 2 3 7 7 5 6 5 2 1 0 0 3 3 1 1 0 1 1 1 1 1 2 7 9 7 6 6 7 10 14 17 17 14 12 11 10 9 10 12 13 12 12 10 5 0 3 4 4 4 4 3 3 3 2 1 4 6 7 8
10 8 4 2 2 5 5 3 5 6 6 7 8 8 7 7 8 7 3 2 4 3 4 8 8 4 3 3 3 5 8 10 9 6 5 4 3 2 2 2 2 3 2 2 2 1 2 2 1 1 3 7 9 6 1 1 4 8 12 14 14 13 13 13 11 11 13 12 10 10 8 5 3 3 4 3 3 4 3 2 2 1 2 4 7 8 9 9
Wind_Direction
208 206 208 222 232 239 237 247 245 247 251 258 263 263 271 271 274 276 277 283 285 290 294 298 302 307 311 312 316 318 320 321 317 312 309 310 287 273 295 316 326 314 288 271 266 271 290 303 243 238 257 260 247 222 237 231 202 203 197 219 239 241 255 341 332 325 354 333 333 304 314 325 313 314 276 257 264 270 280 285 287 282 271 270 281 286 273 277
232 235 240 247 253 261 260 262 259 259 260 261 263 264 268 268 273 273 277 282 282 288 290 295 299 302 308 310 315 317 321 320 314 313 312 307 269 243 304 326 323 317 300 280 279 268 236 271 235 233 238 247 243 213 231 228 197 214 232 234 243 247 279 312 306 314 344 319 314 312 316 324 318 316 306 281 276 282 283 284 290 288 282 280 284 284 268 267
239 240 245 248 252 258 260 264 267 269 270 273 272 270 271 271 273 274 278 280 283 287 287 293 296 300 304 308 313 318 324 321 319 324 332 67 130 115 4 346 326 300 296 269 254 186 221 266 245 237 244 249 242 207 213 202 194 218 221 245 245 258 287 296 300 307 312 308 313 309 317 321 305 301 293 282 279 274 270 275 284 283 284 291 296 300 282 270
246 246 248 250 254 256 257 261 264 268 272 274 276 276 276 276 277 278 280 281 284 285 287 292 294 299 301 306 312 318 325 322 319 317 157 121 104 359 334 338 336 292 282 261 238 199 230 259 245 245 253 260 255 227 204 197 199 208 202 233 263 287 305 295 302 307 305 315 322 311 317 307 293 291 281 277 282 259 254 265 274 278 285 296 299 302 293 280
253 254 255 256 256 258 259 262 263 266 269 270 274 275 277 278 279 280 281 282 284 285 288 290 293 297 299 303 307 316 329 330 61 132 202 159 310 309 310 317 320 281 260 259 243 215 231 245 239 249 250 263 268 246 224 217 214 227 236 247 264 282 288 283 294 303 309 313 304 297 296 292 292 289 277 270 262 252 261 270 276 279 285 292 292 293 289 282
257 259 260 261 261 262 263 265 268 269 269 270 273 275 278 279 280 282 283 284 285 287 288 289 293 294 296 301 303 312 322 291 297 314 270 270 292 295 295 300 302 262 238 240 234 238 240 236 229 240 240 247 264 254 254 241 221 219 253 254 266 274 274 283 291 297 312 309 292 284 281 289 294 285 278 269 261 266 269 274 278 281 284 288 288 287 283 281
257 259 261 264 264 265 266 269 271 272 272 273 274 275 277 277 279 280 280 283 284 285 287 288 290 291 295 298 299 306 288 265 285 286 275 284 288 289 289 289 284 233 228 238 234 236 238 233 229 242 252 249 256 255 267 272 247 227 250 265 276 278 277 284 288 289 298 293 281 281 283 283 279 279 282 274 271 274 273 273 274 277 280 281 283 281 278 277
254 257 259 262 264 267 267 269 271 272 273 273 275 275 275 276 276 277 277 279 279 281 282 283 286 287 290 292 298 302 266 268 281 277 276 283 283 287 286 274 255 223 227 241 232 224 236 242 243 250 259 254 263 276 293 304 277 251 261 271 273 276 280 287 289 282 280 278 276 276 274 271 271 277 280 276 277 279 279 277 272 273 275 274 276 277 277 274
251 254 257 259 262 264 265 267 268 270 271 272 274 274 275 276 276 278 277 278 278 279 280 281 282 283 286 287 294 288 267 273 275 270 273 273 274 281 272 255 244 230 230 237 225 222 237 244 253 264 281 281 282 294 296 294 269 259 291 303 297 293 292 292 289 282 275 273 270 261 261 266 273 281 278 271 275 281 283 278 270 270 273 271 272 275 276 276
255 257 259 261 262 263 265 267 268 270 272 273 275 276 278 279 280 281 280 281 281 280 281 280 280 281 281 281 271 262 275 275 263 261 264 265 269 268 261 254 251 242 235 236 225 223 238 247 265 286 301 296 290 288 282 271 272 306 322 315 305 295 288 281 277 274 270 268 262 250 257 267 274 285 276 272 277 283 283 278 274 270 268 269 272 278 281 280
261 262 263 264 264 266 268 270 272 273 275 276 278 279 281 282 283 284 284 284 283 282 282 280 281 278 277 272 238 241 272 269 257 262 264 270 273 266 261 259 260 251 233 232 230 228 237 248 264 278 287 295 294 286 280 273 286 317 330 314 294 286 282 274 268 265 261 260 252 239 256 277 279 263 252 271 284 284 279 277 275 270 268 270 275 282 286 286
263 264 264 265 265 268 269 271 273 275 277 279 281 282 284 285 285 286 286 286 285 284 282 280 279 276 276 266 246 252 268 265 263 268 268 273 274 269 266 262 258 243 225 223 229 233 234 241 251 254 261 286 310 293 289 315 317 322 323 303 285 282 274 267 262 256 253 233 207 187 278 281 273 247 253 270 284 281 276 277 277 276 276 278 281 285 289 292
265 266 266 267 267 268 270 272 274 277 279 281 283 285 287 288 288 288 287 287 286 284 282 280 277 277 272 261 262 269 270 263 264 266 267 269 270 271 267 258 249 239 230 226 226 232 233 239 247 248 260 279 295 285 297 311 307 286 268 257 280 290 273 267 261 243 241 188 155 136 121 261 268 273 277 291 304 302 296 290 284 281 281 283 285 288 293 297
265 267 268 269 270 272 273 275 278 281 284 287 290 292 293 295 295 294 293 290 288 284 282 278 278 277 260 261 278 280 269 264 259 259 264 266 266 269 265 255 243 236 233 234 235 237 239 245 250 252 260 265 268 284 305 300 279 262 261 239 257 280 271 274 258 164 159 157 151 138 227 246 271 285 300 319 319 316 307 295 287 281 281 283 287 295 299 301
266 267 267 268 271 273 276 280 284 287 291 295 297 300 302 303 303 302 299 295 291 287 283 281 279 271 262 273 281 275 264 255 250 258 264 264 266 267 262 254 242 236 234 238 241 242 246 251 250 249 261 259 254 277 304 282 260 254 262 257 229 229 258 280 250 157 169 185 160 144 218 245 252 290 308 307 301 299 291 285 282 280 281 284 295 307 307 311
266 265 265 268 270 273 277 282 286 291 295 298 302 305 306 307 307 305 301 299 295 290 286 281 275 260 262 280 277 273 262 244 251 265 258 257 262 261 265 265 248 239 234 236 241 242 246 246 242 241 255 262 230 232 275 274 266 236 227 250 242 233 248 277 255 171 171 140 180 190 218 252 253 284 288 288 288 282 275 274 275 278 283 288 297 303 313 353
263 265 265 266 267 271 275 280 286 291 295 298 302 305 307 310 309 305 301 297 292 288 279 266 270 270 262 267 269 269 263 254 262 264 254 256 254 254 269 267 242 238 231 235 236 231 232 220 209 235 238 247 252 236 264 265 255 246 236 250 255 261 269 287 337 169 154 140 209 218 220 243 248 256 268 282 291 284 271 271 275 282 290 295 300 315 28 59
257 261 263 263 264 267 271 277 284 289 294 300 305 309 313 314 311 304 297 290 282 282 275 236 194 258 262 260 266 259 253 264 267 264 259 250 247 256 244 211 226 205 177 212 213 192 201 202 190 244 242 225 244 229 229 239 242 268 272 278 285 288 301 297 299 314 242 219 234 231 238 254 264 271 279 284 283 278 274 275 279 285 290 298 326 63 73 67
251 250 253 256 259 264 268 275 283 288 294 302 310 315 318 318 310 303 295 277 247 243 281 207 185 220 293 279 271 260 259 265 270 273 267 254 251 235 198 179 185 170 160 173 185 180 181 177 176 220 249 226 224 213 220 234 243 265 271 277 288 286 289 284 279 286 289 277 266 259 265 280 289 288 285 277 273 274 276 277 280 281 286 329 71 82 77 68
248 247 247 250 256 264 269 278 284 291 298 305 319 326 331 336 324 317 324 285 262 262 280 262 232 253 279 286 278 269 267 270 270 267 265 255 231 204 179 162 174 188 203 186 166 179 177 169 191 197 225 236 236 233 238 244 249 264 270 270 280 285 281 277 280 285 297 300 277 277 286 289 291 286 273 274 276 275 273 277 284 298 44 79 84 82 75 71
243 247 250 256 263 268 274 283 287 294 305 311 331 349 349 343 322 306 320 300 285 278 274 270 257 255 266 273 275 274 272 275 267 256 253 223 183 173 169 165 166 203 227 198 132 143 172 191 219 210 226 240 249 260 267 274 281 286 286 285 285 282 279 279 282 286 317 42 273 294 295 292 298 285 275 276 278 276 281 312 12 57 73 78 80 77 74 73
246 251 257 262 268 273 276 285 290 295 308 312 335 2 315 316 304 297 312 299 287 282 267 263 260 257 262 264 262 264 263 264 249 233 234 199 174 174 176 175 186 209 211 178 113 114 193 224 231 226 233 245 256 268 274 275 283 291 292 299 290 272 280 283 276 277 77 114 284 308 296 297 292 279 279 280 272 295 58 72 74 79 78 76 77 76 76 73
251 254 262 266 271 280 283 287 292 296 307 311 316 310 302 315 307 301 305 279 285 290 271 258 253 251 257 256 251 253 250 251 246 226 216 183 174 189 181 180 217 227 198 170 171 206 199 219 231 228 233 248 257 263 271 269 259 258 262 276 274 267 275 277 276 335 15 309 287 295 290 288 278 274 280 272 261 78 80 81 79 82 82 79 80 81 82 77
259 257 263 270 277 287 290 293 295 296 304 307 293 290 311 319 308 313 307 258 274 284 263 248 240 238 239 234 240 246 238 244 249 214 192 175 173 188 193 202 224 236 222 204 214 230 232 256 258 229 226 245 261 270 272 270 268 253 239 240 255 261 262 269 322 349 337 307 289 296 295 260 263 287 299 271 211 85 84 83 77 78 79 77 77 77 77 76
265 264 266 272 278 284 293 305 303 303 311 299 287 299 322 320 313 329 322 263 253 254 246 237 225 231 231 229 241 244 233 232 219 179 175 179 180 173 198 217 217 233 235 227 233 240 246 264 266 223 219 240 255 264 255 242 270 270 246 245 257 270 285 304 337 353 340 304 298 46 343 252 257 299 285 265 112 85 82 84 80 78 77 75 72 69 69 69
264 269 271 271 275 280 292 303 288 297 313 272 277 308 321 321 323 338 339 276 256 214 205 209 202 217 218 218 216 201 215 217 195 187 182 188 190 176 202 208 201 237 250 247 257 258 229 183 85 145 198 202 219 255 253 221 242 260 242 300 320 359 360 342 348 5 288 271 252 157 281 264 260 265 261 251 113 96 85 84 84 80 79 77 72 66 64 65
262 268 270 270 273 276 278 260 242 255 264 245 259 299 303 309 338 357 353 270 260 158 135 158 170 173 177 174 161 157 179 160 161 190 194 197 196 197 237 184 177 233 233 20 341 279 197 144 70 62 179 190 208 248 247 188 195 244 242 349 5 36 13 348 336 244 238 271 266 228 223 264 267 251 250 216 116 106 100 93 88 83 80 79 77 66 60 64
265 268 271 271 269 268 263 244 229 226 230 230 242 259 272 247 176 30 348 267 273 123 129 130 147 180 176 167 167 157 110 142 143 189 193 195 188 184 235 240 281 286 172 156 196 324 81 143 154 168 171 206 211 258 293 172 178 219 227 359 32 60 300 260 243 249 264 306 284 216 182 236 269 257 245 181 121 116 124 116 104 94 85 80 79 70 60 63
266 267 268 265 258 255 251 241 229 221 224 227 231 231 201 171 157 51 229 252 293 99 147 138 135 170 162 157 177 176 125 131 123 142 169 184 183 174 243 267 311 322 199 185 219 279 33 121 201 177 167 213 197 356 349 53 174 205 242 317 324 233 241 237 234 253 299 292 258 214 177 189 277 266 239 163 133 139 138 127 115 106 99 90 85 80 70 63
261 256 254 248 242 242 241 239 234 228 228 226 222 212 190 174 140 159 209 222 316 89 133 142 130 159 171 171 178 183 179 122 116 132 134 158 186 200 270 299 321 323 275 245 251 263 154 91 18 233 215 195 120 84 9 42 100 66 320 329 301 259 226 214 219 174 336 266 247 230 197 185 276 284 224 116 147 153 142 138 130 112 106 101 94 89 84 74
249 245 242 237 235 237 240 241 237 229 222 222 221 202 181 169 170 214 218 215 27 137 134 140 129 157 183 199 148 181 197 135 136 152 152 141 173 201 262 293 27 346 308 301 271 263 217 148 227 229 223 174 112 87 20 38 53 41 21 1 329 300 184 128 132 119 175 252 270 276 199 183 214 284 327 37 100 146 150 149 143 121 105 100 97 94 90 82
238 240 238 238 238 237 237 235 233 223 212 210 205 184 164 191 227 215 197 80 143 197 145 122 151 171 187 169 112 162 173 137 155 177 185 152 166 191 206 198 164 175 259 250 291 281 217 207 193 175 216 181 127 60 8 4 37 86 89 42 330 319 333 282 240 163 219 237 270 358 43 179 219 275 311 36 59 89 117 124 127 120 109 103 101 98 92 87
234 234 233 233 231 228 227 227 225 212 205 203 193 176 166 219 222 180 170 197 203 137 95 70 83 173 167 154 146 135 57 107 163 185 347 133 169 211 206 208 213 232 234 274 358 322 289 259 166 141 302 191 172 155 201 302 145 159 172 162 177 279 298 270 259 244 252 250 272 13 28 343 240 279 329 75 70 64 83 100 110 112 110 106 102 94 90 90
234 235 238 234 227 224 222 219 211 198 199 198 182 171 204 223 229 123 187 213 193 82 82 67 83 84 263 204 172 147 130 172 158 123 57 147 163 227 219 215 216 210 126 52 350 239 282 320 180 173 181 177 184 202 208 138 168 195 198 162 176 208 231 249 266 261 261 283 294 352 31 254 214 224 80 91 87 79 84 95 101 102 104 103 99 94 92 94
239 239 238 233 229 224 214 205 198 187 187 184 166 184 220 215 145 133 204 226 197 112 79 37 111 143 234 209 163 174 200 185 156 144 198 192 194 225 221 202 192 160 102 138 257 143 215 257 195 158 159 167 189 256 336 50 162 231 213 111 206 214 210 254 271 261 273 298 288 250 231 260 233 99 100 95 88 85 88 94 97 98 100 99 96 96 98 99
240 239 235 231 227 219 208 198 191 185 182 174 168 224 218 207 181 168 222 275 200 127 115 78 146 173 223 203 176 191 194 159 163 170 194 202 232 229 213 172 166 168 158 168 217 189 212 233 151 117 191 178 177 320 21 48 349 355 53 159 236 210 135 267 274 273 269 267 262 248 260 282 332 101 111 101 93 94 95 94 96 99 100 99 99 104 106 102
233 234 232 227 219 211 205 197 191 193 193 186 204 224 201 202 223 227 14 16 346 92 136 179 198 184 214 217 185 171 156 141 164 165 184 197 256 217 193 154 106 167 182 158 234 238 234 260 211 182 223 227 139 17 351 7 120 116 209 237 271 352 64 232 257 268 255 255 250 244 263 277 277 250 138 120 111 107 108 104 104 106 106 107 113 116 111 102
231 235 238 234 221 207 201 197 194 198 201 202 224 227 200 184 207 215 58 71 11 30 144 209 210 155 208 228 195 143 136 117 143 151 174 183 210 179 173 162 35 37 74 101 109 271 357 274 258 241 234 217 115 44 340 336 84 138 208 272 78 201 276 243 224 226 242 259 255 231 248 257 253 256 148 142 136 123 124 125 120 122 124 123 123 121 115 110
231 238 247 241 220 204 199 196 195 200 208 222 230 227 213 227 255 274 335 26 10 37 169 238 220 195 240 243 19 114 146 164 164 167 178 173 206 185 131 67 42 31 41 92 135 330 46 243 269 10 74 108 47 49 202 287 358 74 35 346 122 167 213 226 248 255 240 259 267 244 246 251 256 316 50 121 135 136 139 136 128 130 132 134 136 136 133 127
221 225 248 233 207 197 194 190 190 197 217 232 230 229 96 66 257 253 247 245 336 160 213 288 247 232 256 285 314 277 184 203 215 216 223 226 278 20 49 36 53 64 28 58 124 74 67 240 249 312 15 58 64 194 168 195 326 47 50 291 250 167 227 271 277 247 231 257 270 261 255 253 321 357 54 100 115 130 134 127 122 125 131 144 156 159 163 157
194 202 243 216 194 185 182 179 187 198 221 229 229 237 213 223 219 216 214 206 204 201 209 254 261 242 258 274 269 254 235 248 234 226 235 232 247 287 40 35 44 60 25 27 64 70 155 232 228 295 301 268 245 255 18 319 281 228 154 206 260 245 219 283 267 230 216 237 240 255 262 253 274 345 63 92 90 104 122 127 134 143 151 166 177 183 189 186
178 196 223 198 187 179 173 172 196 199 214 226 221 217 216 225 208 184 185 190 199 211 206 212 233 233 238 243 240 235 237 235 209 214 225 215 231 243 143 107 71 71 73 65 52 49 63 99 149 267 259 254 266 278 308 312 280 238 199 211 257 241 177 212 257 254 250 261 250 249 254 239 235 327 68 105 110 118 134 141 148 161 173 181 187 191 190 184
184 193 184 185 183 177 172 180 209 196 224 228 222 221 213 210 209 197 186 181 187 202 202 202 215 220 224 227 230 234 236 233 213 218 227 224 239 64 108 121 93 91 84 42 217 57 60 96 199 256 257 265 272 273 337 13 1 249 262 290 233 256 197 189 233 229 217 274 277 263 256 249 262 308 67 111 119 128 145 155 159 172 184 190 194 191 186 189
190 185 174 186 181 176 179 210 199 199 224 220 221 224 218 217 213 207 198 185 184 197 205 208 215 220 224 223 227 231 231 239 233 217 215 224 167 78 78 69 65 69 46 46 181 131 18 199 149 233 282 288 282 276 346 19 32 51 307 335 350 298 299 307 268 209 207 225 232 250 259 240 224 269 189 134 131 139 158 173 182 187 193 198 198 192 188 190
183 182 177 189 183 184 201 230 198 213 216 211 225 225 221 227 215 215 220 205 199 209 216 218 219 226 236 231 235 238 232 242 235 198 152 189 120 77 66 59 66 75 78 85 86 86 206 196 131 178 248 254 262 267 247 54 51 73 274 280 279 269 268 288 309 261 252 234 227 256 264 262 287 269 234 178 156 164 179 193 201 204 203 201 196 190 191 199
187 188 162 180 188 198 219 233 239 263 214 206 225 222 219 229 216 212 217 216 216 217 220 232 221 230 269 235 226 230 229 233 225 214 148 153 138 87 82 81 85 100 106 96 77 72 129 237 202 207 231 244 255 271 288 308 293 272 278 279 275 267 253 251 256 255 272 309 275 261 265 277 287 281 279 274 157 175 206 212 207 205 203 195 191 193 202 220
191 213 174 171 189 207 224 231 230 239 236 218 217 211 215 221 218 203 202 206 217 216 217 222 203 192 214 216 216 220 220 221 216 216 220 198 150 119 124 106 97 115 122 116 113 109 123 241 229 221 235 247 257 270 283 292 280 270 278 278 275 276 261 243 247 257 294 316 268 264 276 282 281 282 295 311 280 251 271 254 219 202 197 192 193 207 225 245
188 263 195 175 183 206 214 220 217 216 237 243 233 235 226 218 216 209 195 189 200 214 213 209 209 213 215 216 222 218 215 223 223 217 215 194 126 105 128 110 101 129 129 116 140 123 123 242 248 249 253 259 266 270 274 281 284 281 278 275 277 275 264 256 257 256 251 255 261 273 280 278 280 285 289 297 296 293 294 253 194 171 175 182 193 218 242 264
210 282 223 183 192 215 198 201 202 207 226 237 238 246 240 228 224 211 158 155 182 217 213 211 216 214 217 228 226 214 214 211 211 213 78 81 69 90 126 89 100 151 141 99 185 169 149 234 252 266 270 269 264 266 275 279 278 275 269 267 267 264 264 268 271 265 257 257 267 275 277 276 279 284 287 295 299 312 90 109 122 125 153 172 185 234 258 272
223 269 239 203 220 172 172 190 189 197 220 225 230 239 235 238 237 214 129 158 180 195 207 218 220 160 95 172 182 189 199 146 137 136 112 99 59 83 145 242 102 150 132 65 294 254 218 217 129 74 292 280 270 271 276 262 261 268 267 263 259 261 268 271 269 270 270 269 270 270 273 274 274 279 294 88 121 103 95 103 116 126 148 161 211 272 277 283
232 224 205 271 232 170 145 181 185 192 217 217 223 231 217 227 236 226 120 143 159 171 192 187 167 118 99 138 154 126 104 119 125 132 130 136 155 129 111 50 107 114 100 79 354 315 291 261 8 52 264 270 276 280 272 259 266 269 263 258 255 258 263 261 259 263 262 267 273 271 269 270 264 167 108 127 120 96 91 100 102 110 138 211 275 281 284 287
235 226 233 303 240 189 172 168 186 200 213 213 218 227 223 226 229 224 217 114 98 88 119 132 128 123 144 161 131 98 103 113 119 124 128 138 168 184 219 221 165 161 169 158 161 199 186 173 204 215 240 267 273 281 319 306 271 263 255 252 252 253 255 257 257 254 251 256 264 265 260 250 212 143 137 145 108 85 59 34 22 321 277 268 274 280 284 288